Weather History for Statesboro, GA

Change the Weather History Date:

Sunday, February 23, 2014

  Actual Average (KSAV) Record (KSAV)
Temperature  
Mean Temperature 52 °F 55 °F  
Max Temperature 63 °F 66 °F 84 °F (2012)
Min Temperature 40 °F 43 °F 23 °F (1978)
Degree Days  
Heating Degree Days 14 11  
Month to date heating degree days 292  
Since 1 July heating degree days 1466  
Cooling Degree Days 0 0  
Month to date cooling degree days 0  
Year to date cooling degree days 3  
Growing Degree Days 2 (Base 50)    
Moisture  
Dew Point 50 °F    
Average Humidity 87    
Maximum Humidity 100    
Minimum Humidity 54    
Precipitation  
Precipitation 0.00 in 0.11 in 1.23 in (2013)
Month to date precipitation 2.29  
Year to date precipitation 5.98  
Sea Level Pressure  
Sea Level Pressure 30.05 in    
Wind  
Wind Speed 1 mph (SSW)    
Max Wind Speed 8 mph    
Max Gust Speed -    
Visibility 10 miles    
Events      
T = Trace of Precipitation, MM = Missing Value Source: NWS Daily Summary

Daily Weather History Graph

Daily Weather History Graph

Search for Another Location

Airport:

Trip Planner

Search our weather history database for the weather conditions in past years. The results will help you decide how hot, cold, wet, or windy it might be!

Date:

Astronomy

Feb. 23, 2014 Rise Set
Actual Time 7:01 AM EST 6:19 PM EST
Civil Twilight 6:36 AM EST 6:44 PM EST
Nautical Twilight 6:08 AM EST 7:13 PM EST
Astronomical Twilight 5:39 AM EST 7:41 PM EST
Moon 1:48 AM EST (2/23) 12:30 PM EST (2/23)
Length of Visible Light 12h 07m
Length of Day
11h 18m
Last Quarter, 39% of the Moon is Illuminated
Feb 23
Last Quarter
Mar 1
New
Mar 8
First Quarter
Mar 16
Full
Mar 23
Last Quarter

Hourly Weather History & Observations

Time (EST) Temp. Dew Point Humidity Pressure Visibility Wind Dir Wind Speed Gust Speed Precip Events Conditions
12:15 AM 43.7 °F 43.3 °F 99% 30.11 in 7.0 mi Calm Calm - N/A   Unknown
12:35 AM 43.9 °F 43.7 °F 99% 30.10 in 10.0 mi Calm Calm - N/A   Unknown
12:55 AM 43.7 °F 43.3 °F 99% 30.09 in 10.0 mi Calm Calm - N/A   Unknown
1:15 AM 43.7 °F 43.5 °F 99% 30.09 in 10.0 mi Calm Calm - N/A   Unknown
1:35 AM 43.3 °F 43.3 °F 100% 30.09 in 10.0 mi Calm Calm - N/A   Unknown
1:55 AM 42.8 °F 42.8 °F 100% 30.09 in 10.0 mi Calm Calm - N/A   Unknown
2:15 AM 42.3 °F 42.3 °F 100% 30.08 in 10.0 mi Calm Calm - N/A   Unknown
2:35 AM 42.4 °F 42.4 °F 100% 30.08 in 10.0 mi Calm Calm - N/A   Unknown
2:55 AM 42.6 °F 42.6 °F 100% 30.08 in 10.0 mi Calm Calm - N/A   Unknown
3:15 AM 42.3 °F 42.3 °F 100% 30.08 in 10.0 mi Calm Calm - N/A   Unknown
3:35 AM 42.3 °F 42.3 °F 100% 30.08 in 10.0 mi Calm Calm - N/A   Unknown
3:55 AM 41.2 °F 41.2 °F 100% 30.08 in 10.0 mi Calm Calm - N/A   Unknown
4:15 AM 41.9 °F 41.9 °F 100% 30.08 in 10.0 mi Calm Calm - N/A   Unknown
4:35 AM 41.9 °F 41.9 °F 100% 30.08 in 10.0 mi Calm Calm - N/A   Unknown
4:55 AM 41.5 °F 41.5 °F 100% 30.08 in 10.0 mi Calm Calm - N/A   Unknown
5:15 AM 41.5 °F 41.5 °F 100% 30.08 in 10.0 mi Calm Calm - N/A   Unknown
5:35 AM 41.9 °F 41.9 °F 100% 30.09 in 10.0 mi Calm Calm - N/A   Unknown
5:55 AM 41.0 °F 41.0 °F 100% 30.09 in 10.0 mi Calm Calm - N/A   Unknown
6:15 AM 41.0 °F 41.0 °F 100% 30.09 in 10.0 mi Calm Calm - N/A   Unknown
6:35 AM 41.0 °F 41.0 °F 100% 30.09 in 10.0 mi Calm Calm - N/A   Unknown
6:55 AM 40.6 °F 40.6 °F 100% 30.09 in 10.0 mi Calm Calm - N/A   Unknown
7:15 AM 42.1 °F 42.1 °F 100% 30.09 in 10.0 mi Calm Calm - N/A   Unknown
7:35 AM 43.3 °F 43.3 °F 100% 30.09 in 10.0 mi Calm Calm - N/A   Unknown
7:55 AM 45.1 °F 45.1 °F 100% 30.09 in 10.0 mi Calm Calm - N/A   Unknown
8:15 AM 47.8 °F 47.5 °F 99% 30.09 in 10.0 mi Calm Calm - N/A   Unknown
8:35 AM 51.1 °F 50.0 °F 96% 30.08 in 10.0 mi Calm Calm - N/A   Unknown
8:55 AM 53.6 °F 50.9 °F 91% 30.09 in 10.0 mi Calm Calm - N/A   Unknown
9:15 AM 55.9 °F 52.2 °F 87% 30.10 in 10.0 mi South 3.5 mph - N/A   Unknown
9:35 AM 57.6 °F 51.6 °F 81% 30.11 in 10.0 mi Calm Calm - N/A   Clear
9:55 AM 59.4 °F 48.6 °F 67% 30.10 in 10.0 mi Calm Calm - N/A   Clear
10:10 AM 60.3 °F 48.4 °F 65% 30.10 in 10.0 mi Calm Calm - N/A   Clear
10:35 AM 61.5 °F 47.8 °F 61% 30.11 in 10.0 mi Calm Calm - N/A   Clear
10:55 AM 63.5 °F 46.4 °F 54% 30.13 in 10.0 mi West 8.1 mph - N/A   Mostly Cloudy
11:15 AM 63.0 °F 48.4 °F 59% 30.13 in 10.0 mi WSW 5.8 mph - N/A   Overcast
11:35 AM 63.1 °F 50.9 °F 64% 30.12 in 10.0 mi West 8.1 mph - N/A   Mostly Cloudy
11:55 AM 63.0 °F 50.9 °F 65% 30.10 in 10.0 mi SSW 8.1 mph - N/A   Scattered Clouds
12:15 PM 62.4 °F 50.9 °F 66% 30.08 in 10.0 mi SSW 4.6 mph - N/A   Scattered Clouds
12:35 PM 62.6 °F 51.1 °F 66% 30.06 in 10.0 mi Calm Calm - N/A   Clear
12:55 PM 62.6 °F 51.1 °F 66% 30.06 in 10.0 mi Calm Calm - N/A   Clear
1:15 PM 63.0 °F 51.4 °F 66% 30.06 in 10.0 mi NW 3.5 mph - N/A   Scattered Clouds
1:35 PM 62.6 °F 51.6 °F 67% 30.05 in 10.0 mi Calm Calm - N/A   Scattered Clouds
1:55 PM 62.6 °F 51.8 °F 68% 30.04 in 10.0 mi SSE 3.5 mph - N/A   Clear
2:15 PM 63.5 °F 51.8 °F 66% 30.03 in 10.0 mi SSE 3.5 mph - N/A   Clear
2:35 PM 63.3 °F 52.5 °F 68% 30.02 in 10.0 mi SSE 4.6 mph - N/A   Clear
2:55 PM 63.5 °F 52.7 °F 68% 30.01 in 10.0 mi SSE 4.6 mph - N/A   Clear
3:15 PM 63.5 °F 52.9 °F 68% 30.01 in 10.0 mi SSE 3.5 mph - N/A   Clear
3:35 PM 63.5 °F 52.9 °F 68% 30.00 in 10.0 mi South 5.8 mph - N/A   Clear
3:55 PM 63.5 °F 53.2 °F 69% 30.00 in 10.0 mi South 3.5 mph - N/A   Clear
4:15 PM 63.3 °F 53.4 °F 70% 30.00 in 10.0 mi South 4.6 mph - N/A   Clear
4:35 PM 63.0 °F 53.6 °F 71% 29.99 in 10.0 mi South 5.8 mph - N/A   Clear
4:55 PM 62.6 °F 53.6 °F 72% 29.98 in 10.0 mi SSW 5.8 mph - N/A   Clear
5:15 PM 62.2 °F 53.8 °F 74% 29.97 in 10.0 mi South 5.8 mph - N/A   Clear
5:35 PM 61.9 °F 53.8 °F 75% 29.98 in 10.0 mi South 3.5 mph - N/A   Clear
5:55 PM 61.7 °F 54.0 °F 76% 29.99 in 10.0 mi SW 3.5 mph - N/A   Clear
6:15 PM 61.3 °F 53.8 °F 76% 29.98 in 10.0 mi Calm Calm - N/A   Clear
6:35 PM 61.0 °F 54.0 °F 78% 29.98 in 10.0 mi Calm Calm - N/A   Clear
6:55 PM 59.0 °F 57.7 °F 96% 29.99 in 10.0 mi Calm Calm - N/A   Clear
7:15 PM 57.2 °F 56.7 °F 98% 30.00 in 10.0 mi Calm Calm - N/A   Scattered Clouds
7:35 PM 57.4 °F 57.4 °F 100% 30.00 in 10.0 mi Calm Calm - N/A   Overcast
7:55 PM 57.4 °F 57.2 °F 99% 29.99 in 10.0 mi Calm Calm - N/A   Overcast
8:15 PM 58.1 °F 57.9 °F 99% 29.99 in 10.0 mi Calm Calm - N/A   Overcast
8:35 PM 58.6 °F 58.1 °F 98% 29.99 in 10.0 mi Calm Calm - N/A   Overcast
8:55 PM 59.4 °F 58.5 °F 97% 29.99 in 10.0 mi Calm Calm - N/A   Overcast
9:15 PM 59.4 °F 58.3 °F 96% 29.98 in 10.0 mi Calm Calm - N/A   Mostly Cloudy
9:35 PM 58.8 °F 58.1 °F 97% 29.99 in 10.0 mi SW 3.5 mph - N/A   Mostly Cloudy
9:55 PM 59.4 °F 58.3 °F 96% 29.99 in 10.0 mi WSW 4.6 mph - N/A   Overcast
10:15 PM 59.4 °F 58.5 °F 97% 30.00 in 10.0 mi WSW 5.8 mph - N/A   Overcast
10:35 PM 59.5 °F 58.5 °F 96% 29.99 in 10.0 mi WSW 5.8 mph - N/A   Overcast
10:55 PM 59.4 °F 58.6 °F 97% 29.99 in 10.0 mi WSW 6.9 mph - N/A   Overcast
11:10 PM 59.4 °F 58.8 °F 98% 29.98 in 10.0 mi WSW 4.6 mph - N/A   Overcast
11:35 PM 59.4 °F 59.0 °F 99% 29.98 in 10.0 mi West 4.6 mph - N/A   Overcast
11:55 PM 59.4 °F 59.0 °F 99% 29.98 in 10.0 mi West 5.8 mph - N/A   Overcast